KG0HG Weather Reports


Display with metric or nautical units.
time (UTC)temp
F
wind
direction
speed
MPH
gust
MPH
rain 1hr
in
rain 24hr
in
rain mn
in
humidity
%
barometer
mb
20260509064637 52 74 0.0 0.0 0.00 0.00 0.00 99 1009.0
20260509064135 53 74 0.0 1.0 0.00 0.00 0.00 99 1008.9
20260509063632 52 87 1.0 1.0 0.00 0.00 0.00 99 1009.0
20260509063129 52 100 0.0 0.0 0.00 0.00 0.00 99 1009.0
20260509062626 52 100 0.0 0.0 0.00 0.00 0.00 99 1008.9
20260509062123 52 100 0.0 0.0 0.00 0.00 0.00 99 1009.1
20260509061620 52 100 0.0 0.0 0.00 0.00 0.00 99 1008.9
20260509061117 52 100 0.0 0.0 0.00 0.00 0.00 99 1009.1
20260509060615 52 107 0.0 0.0 0.00 0.00 0.00 99 1009.3
20260509060110 52 107 0.0 0.0 0.00 0.00 0.00 99 1009.0
20260509055606 52 107 0.0 0.0 0.00 0.00 0.00 99 1009.0
20260509055102 52 107 0.0 0.0 0.00 0.00 0.00 99 1009.1
20260509054559 52 107 0.0 0.0 0.00 0.00 0.00 99 1009.2
20260509054057 52 107 0.0 0.0 0.00 0.00 0.00 99 1009.2
20260509053555 53 107 0.0 1.0 0.00 0.00 0.00 99 1009.4
20260509053052 53 107 0.0 0.0 0.00 0.00 0.00 99 1009.4
20260509052550 52 107 0.0 0.0 0.00 0.00 0.00 99 1009.2
20260509052047 52 107 0.0 0.0 0.00 0.00 0.00 99 1009.2
20260509051545 52 107 0.0 0.0 0.00 0.00 0.00 98 1009.0
20260509051041 53 107 0.0 0.0 0.00 0.00 0.00 98 1009.2
20260509050539 52 108 0.0 0.0 0.00 0.00 0.00 98 1009.4
20260509050035 52 108 0.0 0.0 0.00 0.00 0.00 98 1009.1
20260509045532 52 108 0.0 0.0 0.00 0.00 0.00 98 1009.1
20260509045029 52 108 0.0 0.0 0.00 0.00 0.00 98 1009.2
20260509044526 53 108 0.0 0.0 0.00 0.00 0.00 98 1009.6
20260509044024 52 108 0.0 0.0 0.00 0.00 0.00 98 1009.5
20260509043520 52 108 0.0 0.0 0.00 0.00 0.00 98 1009.3
20260509043010 53 108 0.0 0.0 0.00 0.00 0.00 98 1009.3
20260509042507 53 108 0.0 0.0 0.00 0.00 0.00 98 1009.6
20260509042003 53 108 0.0 0.0 0.00 0.00 0.00 98 1009.4
20260509041500 53 108 0.0 0.0 0.00 0.00 0.00 98 1009.5
20260509040958 53 108 0.0 0.0 0.00 0.00 0.00 98 1009.4
20260509040456 53 108 0.0 0.0 0.00 0.00 0.00 98 1009.5
20260509035952 53 108 0.0 0.0 0.00 0.00 0.00 97 1009.3
20260509035449 53 108 0.0 0.0 0.00 0.00 0.00 97 1009.5
20260509034945 53 108 0.0 0.0 0.00 0.00 0.00 97 1009.4
20260509034444 53 108 0.0 0.0 0.00 0.00 0.00 97 1009.4
20260509033940 53 108 0.0 0.0 0.00 0.00 0.00 97 1009.2
20260509033437 54 108 0.0 0.0 0.00 0.00 0.00 97 1009.5
20260509032934 54 108 0.0 0.0 0.00 0.00 0.00 97 1009.4
20260509032431 54 108 0.0 0.0 0.00 0.00 0.00 97 1009.4
20260509031929 54 108 0.0 0.0 0.00 0.00 0.00 97 1009.4
20260509031426 55 108 0.0 0.0 0.00 0.00 0.00 97 1009.5
20260509030924 55 108 0.0 0.0 0.00 0.00 0.00 96 1009.4
20260509030421 55 108 0.0 0.0 0.00 0.00 0.00 96 1009.1
20260509025918 55 108 0.0 0.0 0.00 0.00 0.00 96 1009.4
20260509025414 55 108 0.0 0.0 0.00 0.00 0.00 96 1009.4
20260509024909 55 108 0.0 0.0 0.00 0.00 0.00 96 1009.1
20260509024406 56 108 0.0 0.0 0.00 0.00 0.00 96 1009.1
20260509023903 56 108 0.0 0.0 0.00 0.00 0.00 96 1009.0
20260509023400 56 108 0.0 0.0 0.00 0.00 0.00 95 1009.2
20260509022856 56 108 0.0 0.0 0.00 0.00 0.00 95 1009.1
20260509022354 56 108 0.0 0.0 0.00 0.00 0.00 95 1008.8
20260509021851 57 108 0.0 0.0 0.00 0.00 0.00 95 1009.0
20260509021347 57 108 0.0 0.0 0.00 0.00 0.00 94 1008.9
20260509020845 57 108 0.0 0.0 0.00 0.00 0.00 94 1009.0
20260509020343 57 108 0.0 0.0 0.00 0.00 0.00 94 1008.9
20260509015840 57 108 0.0 0.0 0.00 0.00 0.00 93 1008.7
20260509015338 58 108 0.0 0.0 0.00 0.00 0.00 93 1008.6
20260509014834 58 108 0.0 0.0 0.00 0.00 0.00 93 1008.5
20260509014326 58 108 0.0 0.0 0.00 0.00 0.00 92 1008.8
20260509013823 59 108 0.0 0.0 0.00 0.00 0.00 92 1008.8
20260509013319 59 108 0.0 0.0 0.00 0.00 0.00 91 1008.5
20260509012815 59 108 0.0 0.0 0.00 0.00 0.00 91 1008.6
20260509012312 59 108 0.0 0.0 0.00 0.00 0.00 90 1008.4
20260509011809 60 108 0.0 0.0 0.00 0.00 0.00 89 1008.2
20260509011307 60 108 0.0 0.0 0.00 0.00 0.00 89 1008.2
20260509010804 61 108 0.0 0.0 0.00 0.00 0.00 88 1007.8
20260509010301 61 108 0.0 0.0 0.00 0.00 0.00 87 1007.9
20260509005758 62 108 0.0 1.0 0.00 0.00 0.00 86 1007.9
20260509005256 63 108 0.0 0.0 0.00 0.00 0.00 84 1007.8
20260509004756 63 108 0.0 0.0 0.00 0.00 0.00 83 1007.8
20260509004253 63 108 0.0 0.0 0.00 0.00 0.00 83 1007.9
20260509003751 64 108 0.0 0.0 0.00 0.00 0.00 83 1007.5
20260509003248 63 108 1.0 1.0 0.00 0.00 0.00 83 1007.4
20260509002745 63 112 1.0 2.0 0.00 0.00 0.00 82 1007.5
20260509002243 63 105 1.0 2.0 0.00 0.00 0.00 82 1007.5
20260509001740 64 94 2.0 2.0 0.00 0.00 0.00 79 1007.7
20260509001236 64 81 0.0 0.0 0.00 0.00 0.00 79 1007.4
20260509000734 64 81 0.0 0.0 0.00 0.00 0.00 80 1007.8
20260509000233 64 36 0.0 0.0 0.00 0.00 0.00 79 1007.9
20260508235728 65 11 1.0 3.0 0.00 0.00 0.00 78 1007.9
20260508235224 64 54 0.0 1.0 0.00 0.00 0.00 79 1007.7
20260508234721 64 54 1.0 1.0 0.00 0.00 0.00 80 1007.8
20260508234217 63 55 1.0 1.0 0.00 0.00 0.00 80 1007.7
20260508233712 62 87 1.0 2.0 0.00 0.00 0.00 82 1007.7
20260508233210 62 101 0.0 0.0 0.00 0.00 0.00 83 1007.4
20260508232707 62 101 0.0 1.0 0.00 0.00 0.00 83 1007.7
20260508232203 62 119 0.0 1.0 0.00 0.00 0.00 82 1007.2
20260508231701 62 168 3.0 5.0 0.00 0.00 0.00 83 1007.1
20260508231158 61 159 3.0 5.0 0.00 0.00 0.00 84 1007.1
20260508230655 62 162 3.0 3.0 0.00 0.00 0.00 85 1007.0
20260508230151 61 174 4.0 6.0 0.00 0.00 0.00 85 1007.0
20260508225649 61 167 0.0 2.0 0.00 0.00 0.00 87 1007.0
20260508225144 61 114 0.0 0.0 0.00 0.00 0.00 89 1007.1
20260508224643 60 105 2.0 2.0 0.00 0.00 0.00 89 1007.1
20260508224140 60 61 0.0 0.0 0.00 0.00 0.00 87 1007.2
20260508223638 61 60 0.0 0.0 0.00 0.00 0.00 86 1007.7
20260508223135 60 60 0.0 0.0 0.00 0.00 0.00 85 1008.0
20260508222632 60 54 0.0 1.0 0.00 0.00 0.00 85 1008.2
20260508222129 61 72 0.0 2.0 0.00 0.00 0.00 85 1008.0
20260508221625 61 35 0.0 3.0 0.00 0.00 0.00 85 1008.2
20260508221121 61 48 1.0 1.0 0.00 0.00 0.00 86 1008.1
20260508220618 61 46 0.0 1.0 0.00 0.00 0.00 86 1008.4
20260508220114 61 26 1.0 2.0 0.00 0.00 0.00 85 1008.6
20260508215611 61 39 2.0 3.0 0.00 0.00 0.00 85 1008.7
20260508215108 61 36 0.0 2.0 0.00 0.00 0.00 85 1008.6
20260508214605 61 43 1.0 2.0 0.00 0.00 0.00 84 1008.6
20260508214101 61 38 0.0 1.0 0.00 0.00 0.00 83 1008.8
20260508213559 62 30 1.0 2.0 0.00 0.00 0.00 81 1009.0
20260508213054 62 46 0.0 0.0 0.00 0.00 0.00 79 1008.9
20260508212551 63 33 1.0 5.0 0.00 0.00 0.00 77 1008.6
20260508212048 64 29 1.0 2.0 0.00 0.00 0.00 73 1009.0
20260508211543 65 313 2.0 7.0 0.00 0.00 0.00 70 1009.2
20260508211040 66 288 3.0 5.0 0.00 0.00 0.00 68 1009.1
20260508210536 66 325 4.0 7.0 0.00 0.00 0.00 68 1009.2
20260508210034 66 321 3.0 5.0 0.00 0.00 0.00 69 1009.0
20260508205531 66 14 3.0 3.0 0.00 0.00 0.00 68 1008.8
20260508205027 67 49 0.0 1.0 0.00 0.00 0.00 69 1008.8
20260508204524 67 124 2.0 2.0 0.00 0.00 0.00 68 1008.8
20260508204020 66 86 1.0 2.0 0.00 0.00 0.00 69 1009.0
20260508203516 66 72 1.0 2.0 0.00 0.00 0.00 68 1009.1
20260508203012 66 107 1.0 2.0 0.00 0.00 0.00 69 1009.3
20260508202509 66 74 1.0 1.0 0.00 0.00 0.00 69 1008.9
20260508202006 66 69 1.0 1.0 0.00 0.00 0.00 69 1008.9
20260508201503 66 69 0.0 1.0 0.00 0.00 0.00 71 1008.6
20260508200959 66 67 0.0 1.0 0.00 0.00 0.00 68 1008.5
20260508200456 66 23 1.0 3.0 0.00 0.00 0.00 67 1008.7
20260508195951 66 42 0.0 2.0 0.00 0.00 0.00 68 1008.6
20260508195449 66 123 0.0 1.0 0.00 0.00 0.00 68 1009.1
20260508194945 66 160 2.0 2.0 0.00 0.00 0.00 68 1009.2
20260508194442 66 160 1.0 3.0 0.00 0.00 0.00 67 1009.3
20260508193939 67 244 3.0 3.0 0.00 0.00 0.00 67 1009.1
20260508193436 66 126 2.0 2.0 0.00 0.00 0.00 67 1009.2
20260508192932 66 153 3.0 5.0 0.00 0.00 0.00 68 1009.2
20260508192429 66 144 3.0 3.0 0.00 0.00 0.00 67 1008.6
20260508191926 65 91 0.0 0.0 0.00 0.00 0.00 71 1008.6
20260508191423 66 91 0.0 0.0 0.00 0.00 0.00 69 1009.0
20260508190920 66 91 0.0 1.0 0.00 0.00 0.00 65 1009.0
20260508190417 66 38 0.0 2.0 0.00 0.00 0.00 67 1009.4
20260508185913 66 74 1.0 2.0 0.00 0.00 0.00 65 1009.1
20260508185411 66 153 3.0 3.0 0.00 0.00 0.00 65 1009.3
20260508184908 65 138 1.0 3.0 0.00 0.00 0.00 67 1009.5
20260508184405 66 145 2.0 5.0 0.00 0.00 0.00 65 1009.2
20260508183901 65 144 2.0 3.0 0.00 0.00 0.00 67 1009.1
20260508183358 66 77 0.0 1.0 0.00 0.00 0.00 67 1009.2
20260508182848 66 29 1.0 1.0 0.00 0.00 0.00 66 1009.6
20260508182345 65 358 1.0 3.0 0.00 0.00 0.00 66 1009.7
20260508181841 66 145 2.0 3.0 0.00 0.00 0.00 67 1009.9
20260508181338 66 292 0.0 3.0 0.00 0.00 0.00 67 1009.9
20260508180835 66 351 2.0 5.0 0.00 0.00 0.00 67 1009.9
20260508180332 65 92 1.0 3.0 0.00 0.00 0.00 67 1009.9
20260508175828 66 29 1.0 6.0 0.00 0.00 0.00 66 1010.0
20260508175324 65 141 1.0 3.0 0.00 0.00 0.00 67 1009.8
20260508174823 65 154 2.0 3.0 0.00 0.00 0.00 67 1009.7
20260508174320 65 134 0.0 3.0 0.00 0.00 0.00 67 1009.5
20260508173816 64 160 3.0 3.0 0.00 0.00 0.00 67 1009.3
20260508173313 64 134 1.0 2.0 0.00 0.00 0.00 68 1009.2
20260508172809 64 130 1.0 1.0 0.00 0.00 0.00 68 1009.4
20260508172307 64 130 0.0 0.0 0.00 0.00 0.00 69 1010.0
20260508171803 64 133 1.0 2.0 0.00 0.00 0.00 69 1009.8
20260508171259 64 129 0.0 1.0 0.00 0.00 0.00 69 1010.3
20260508170755 64 129 0.0 2.0 0.00 0.00 0.00 69 1010.2
20260508170253 64 128 0.0 1.0 0.00 0.00 0.00 68 1010.2
20260508165744 64 147 1.0 3.0 0.00 0.00 0.00 67 1010.2
20260508165242 64 134 1.0 2.0 0.00 0.00 0.00 68 1010.4
20260508164738 64 140 1.0 3.0 0.00 0.00 0.00 68 1010.3
20260508164234 64 174 2.0 6.0 0.00 0.00 0.00 68 1010.5
20260508163733 64 135 0.0 3.0 0.00 0.00 0.00 67 1010.0
20260508163230 64 139 5.0 6.0 0.00 0.00 0.00 68 1010.2
20260508162725 64 151 4.0 6.0 0.00 0.00 0.00 68 1009.8
20260508162223 63 146 1.0 2.0 0.00 0.00 0.00 69 1009.7
20260508161719 63 154 2.0 3.0 0.00 0.00 0.00 68 1010.2
20260508161217 63 141 2.0 2.0 0.00 0.00 0.00 68 1009.9
20260508160715 63 167 3.0 5.0 0.00 0.00 0.00 69 1009.9
20260508160213 63 137 1.0 5.0 0.00 0.00 0.00 69 1010.2
20260508155709 62 161 3.0 5.0 0.00 0.00 0.00 69 1010.2
20260508155206 62 133 3.0 3.0 0.00 0.00 0.00 70 1010.2
20260508154703 62 134 2.0 3.0 0.00 0.00 0.00 70 1010.2
20260508154200 62 163 3.0 5.0 0.00 0.00 0.00 69 1010.1
20260508153656 62 159 5.0 7.0 0.00 0.00 0.00 69 1010.3
20260508153154 61 151 3.0 5.0 0.00 0.00 0.00 70 1010.3
20260508152650 61 135 1.0 2.0 0.00 0.00 0.00 71 1010.2
20260508152146 61 140 1.0 2.0 0.00 0.00 0.00 70 1010.2
20260508151643 61 147 3.0 3.0 0.00 0.00 0.00 70 1010.7
20260508151139 61 135 1.0 2.0 0.00 0.00 0.00 70 1010.5
20260508150636 60 144 2.0 3.0 0.00 0.00 0.00 70 1010.6
20260508150133 60 146 2.0 3.0 0.00 0.00 0.00 71 1010.6
20260508145629 60 155 2.0 5.0 0.00 0.00 0.00 70 1010.6
20260508145125 60 133 0.0 2.0 0.00 0.00 0.00 70 1010.5
20260508144623 60 136 1.0 2.0 0.00 0.00 0.00 70 1010.6
20260508144121 60 136 1.0 2.0 0.00 0.00 0.00 70 1010.8
20260508143618 60 134 2.0 2.0 0.00 0.00 0.00 71 1010.6
20260508143114 59 137 1.0 3.0 0.00 0.00 0.00 70 1010.8
20260508142611 59 144 2.0 5.0 0.00 0.00 0.00 70 1010.6
20260508142108 59 134 2.0 3.0 0.00 0.00 0.00 69 1010.7
20260508141605 59 149 3.0 7.0 0.00 0.00 0.00 69 1010.3
20260508141102 59 148 1.0 3.0 0.00 0.00 0.00 70 1010.4
20260508140559 59 160 3.0 6.0 0.00 0.00 0.00 70 1010.5
20260508140056 59 160 3.0 3.0 0.00 0.00 0.00 70 1010.5
20260508135551 59 136 2.0 2.0 0.00 0.00 0.00 70 1010.4
20260508135048 59 154 3.0 6.0 0.00 0.00 0.00 71 1010.5
20260508134544 59 142 2.0 3.0 0.00 0.00 0.00 71 1010.5
20260508134042 59 141 1.0 3.0 0.00 0.00 0.00 70 1010.5
20260508133538 59 147 2.0 3.0 0.00 0.00 0.00 71 1010.6
20260508133036 59 146 2.0 3.0 0.00 0.00 0.00 71 1010.5
20260508132533 59 145 3.0 3.0 0.00 0.00 0.00 71 1010.6
20260508132030 59 140 1.0 2.0 0.00 0.00 0.00 71 1010.8
20260508131525 59 147 2.0 3.0 0.00 0.00 0.00 70 1010.6
20260508131022 59 155 3.0 5.0 0.00 0.00 0.00 69 1010.5
20260508130519 59 152 2.0 3.0 0.00 0.00 0.00 70 1010.8
20260508130015 59 157 3.0 6.0 0.00 0.00 0.00 70 1010.5
20260508125511 58 154 3.0 3.0 0.00 0.00 0.00 70 1010.7
20260508125009 58 142 1.0 2.0 0.00 0.00 0.00 69 1010.4
20260508124506 58 138 2.0 2.0 0.00 0.00 0.00 69 1010.7
20260508124003 58 147 2.0 3.0 0.00 0.00 0.00 68 1010.7
20260508123502 59 129 2.0 2.0 0.00 0.00 0.00 68 1010.6
20260508122958 58 40 0.0 2.0 0.00 0.00 0.00 68 1010.6
20260508122455 58 115 0.0 1.0 0.00 0.00 0.00 68 1010.9
20260508121952 58 122 1.0 2.0 0.00 0.00 0.00 68 1010.3
20260508121450 58 112 0.0 1.0 0.00 0.00 0.00 68 1010.3
20260508120948 58 126 0.0 0.0 0.00 0.00 0.00 68 1010.4
20260508120445 58 134 2.0 3.0 0.00 0.00 0.00 68 1009.9
20260508115943 58 153 2.0 3.0 0.00 0.00 0.00 68 1010.2
20260508115441 58 150 2.0 2.0 0.00 0.00 0.00 67 1010.1
20260508114936 58 133 2.0 2.0 0.00 0.00 0.00 68 1010.0
20260508114434 58 157 3.0 3.0 0.00 0.00 0.00 68 1009.9
20260508113930 58 127 1.0 2.0 0.00 0.00 0.00 68 1009.9
20260508113428 58 126 0.0 2.0 0.00 0.00 0.00 68 1009.7
20260508112925 58 140 2.0 3.0 0.00 0.00 0.00 68 1009.5
20260508112422 58 157 2.0 3.0 0.00 0.00 0.00 68 1009.5
20260508111918 58 146 1.0 2.0 0.00 0.00 0.00 68 1009.6
20260508111415 58 158 3.0 3.0 0.00 0.00 0.00 68 1009.5
20260508110913 58 142 1.0 2.0 0.00 0.00 0.00 68 1009.6
20260508110411 58 155 1.0 3.0 0.00 0.00 0.00 68 1009.7
20260508105910 58 146 2.0 3.0 0.00 0.00 0.00 68 1009.5
20260508105406 58 145 2.0 3.0 0.00 0.00 0.00 68 1009.6
20260508104904 58 151 2.0 3.0 0.00 0.00 0.00 68 1009.6
20260508104401 58 130 0.0 3.0 0.00 0.00 0.00 68 1009.5
20260508103858 58 156 3.0 5.0 0.00 0.00 0.00 68 1009.5
20260508103355 58 142 2.0 3.0 0.00 0.00 0.00 68 1009.6
20260508102852 58 125 1.0 5.0 0.00 0.00 0.00 68 1009.7
20260508102350 58 146 2.0 5.0 0.00 0.00 0.00 67 1009.5
20260508101847 58 188 5.0 7.0 0.00 0.00 0.00 67 1009.5
20260508101344 58 159 3.0 5.0 0.00 0.00 0.00 67 1009.6
20260508100842 58 140 1.0 3.0 0.00 0.00 0.00 67 1009.4
20260508100341 58 153 2.0 6.0 0.00 0.00 0.00 67 1009.4
20260508095836 58 153 3.0 5.0 0.00 0.00 0.00 67 1009.5
20260508095334 58 141 1.0 2.0 0.00 0.00 0.00 67 1009.6
20260508094831 58 144 2.0 3.0 0.00 0.00 0.00 67 1009.5
20260508094327 57 140 3.0 3.0 0.00 0.00 0.00 67 1009.4
20260508093824 58 155 3.0 3.0 0.00 0.00 0.00 68 1009.4
20260508093322 57 146 2.0 3.0 0.00 0.00 0.00 67 1009.5
20260508092819 57 148 3.0 3.0 0.00 0.00 0.00 68 1009.5
20260508092317 57 145 2.0 5.0 0.00 0.00 0.00 68 1009.4
20260508091815 57 143 1.0 2.0 0.00 0.00 0.00 69 1009.5
20260508091311 57 143 2.0 2.0 0.00 0.00 0.00 69 1009.5
20260508090810 57 145 2.0 5.0 0.00 0.00 0.00 69 1009.7
20260508090308 56 141 1.0 2.0 0.00 0.00 0.00 69 1009.5
20260508085803 56 139 1.0 2.0 0.00 0.00 0.00 69 1009.6
20260508085301 56 138 1.0 2.0 0.00 0.00 0.00 69 1009.5
20260508084756 56 139 0.0 3.0 0.00 0.00 0.00 69 1009.6
20260508084254 56 140 2.0 2.0 0.00 0.00 0.00 70 1009.6
20260508083751 56 139 0.0 2.0 0.00 0.00 0.00 70 1009.7
20260508083249 56 139 1.0 2.0 0.00 0.00 0.00 70 1009.9
20260508082748 56 141 1.0 2.0 0.00 0.00 0.00 70 1010.0
20260508082246 56 139 1.0 2.0 0.00 0.00 0.00 70 1009.8
20260508081743 56 138 0.0 1.0 0.00 0.00 0.00 70 1010.1
20260508081240 56 138 0.0 1.0 0.00 0.00 0.00 70 1010.0
20260508080737 56 136 1.0 2.0 0.00 0.00 0.00 70 1009.9
20260508080235 56 139 1.0 2.0 0.00 0.00 0.00 70 1010.0
20260508075731 56 141 1.0 1.0 0.00 0.00 0.00 69 1009.9
20260508075228 56 147 3.0 3.0 0.00 0.00 0.00 69 1010.1
20260508074726 57 141 1.0 3.0 0.00 0.00 0.00 68 1010.2
20260508074224 57 142 1.0 2.0 0.00 0.00 0.00 68 1010.1
20260508073720 57 143 1.0 2.0 0.00 0.00 0.00 68 1010.3
20260508073218 57 148 1.0 3.0 0.00 0.00 0.00 67 1010.4
20260508072714 57 141 2.0 3.0 0.00 0.00 0.00 68 1010.4
20260508072211 57 137 1.0 2.0 0.00 0.00 0.00 68 1010.4
20260508071708 57 137 1.0 3.0 0.00 0.00 0.00 67 1010.8
20260508071207 57 136 1.0 1.0 0.00 0.00 0.00 68 1010.7
20260508070703 57 133 2.0 2.0 0.00 0.00 0.00 67 1010.6
20260508070202 57 124 1.0 2.0 0.00 0.00 0.00 67 1010.7
20260508065659 57 137 1.0 3.0 0.00 0.00 0.00 67 1010.8
20260508065157 57 138 1.0 2.0 0.00 0.00 0.00 67 1010.9